Location: Unspecified
(37.6100°N, 2.7800°W)
Time: 00:17:39
(UTC+00:00)

OTV 5 (USA 277) - Visible Passes

Search period start: 17 October 2019 00:00
Search period end: 27 October 2019 00:00
Orbit: 310 x 324 km, 54.5° (Epoch: 08 October)

Date Brightness Start Highest point End Pass type
(mag) Time Alt. Az. Time Alt. Az. Time Alt. Az.
19 Oct ? 04:50:31 15° N 04:51:35 18° NE 04:53:33 10° E visible
20 Oct ? 05:05:08 26° NNW 05:06:18 44° NE 05:08:54 10° ESE visible
21 Oct ? 05:19:54 32° WNW 05:20:50 50° SW 05:23:28 10° SSE visible
22 Oct ? 05:34:47 15° WSW 05:35:13 16° SW 05:36:57 10° SSW visible
26 Oct ? 18:09:01 10° SE 18:09:24 10° SE 18:09:24 10° SE visible
